GW1356 Weather Reports


Display with metric or nautical units.
time (UTC)temp
F
wind
direction
speed
MPH
gust
MPH
rain 1hr
in
rain 24hr
in
rain mn
in
humidity
%
barometer
mb
20260508053013 60 228 3.0 7.0 0.00 0.00 0.00 86 1024.0
20260508051519 62 235 1.0 3.0 0.00 0.00 0.00 80 1024.8
20260508050037 61 65 4.0 6.0 0.00 0.00 0.00 80 1024.5
20260508044553 60 62 2.0 3.0 0.00 0.00 0.00 85 1023.6
20260508043051 59 342 0.0 4.0 0.00 0.00 0.00 85 1023.1
20260508041601 59 46 1.0 3.0 0.00 0.00 0.00 85 1022.9
20260508040015 59 337 0.0 1.0 0.00 0.00 0.00 84 1022.8
20260508034523 59 337 0.0 2.0 0.00 0.00 0.00 85 1022.7
20260508033040 59 18 0.0 2.0 0.00 0.00 0.00 85 1022.5
20260508031556 59 82 3.0 5.0 0.00 0.00 0.00 85 1022.6
20260508030112 59 61 0.0 5.0 0.00 0.00 0.00 83 1022.5
20260508024505 60 70 0.0 2.0 0.00 0.00 0.00 82 1022.4
20260508023032 59 292 1.0 2.0 0.00 0.00 0.00 83 1022.5
20260508021522 60 328 0.0 5.0 0.00 0.00 0.00 83 1022.7
20260508020035 60 313 1.0 7.0 0.00 0.00 0.00 81 1022.7
20260508014541 60 1 2.0 4.0 0.00 0.00 0.00 82 1022.7
20260508013101 60 50 3.0 6.0 0.00 0.00 0.00 81 1022.7
20260508011603 60 22 3.0 5.0 0.00 0.00 0.00 82 1022.7
20260508010022 59 17 4.0 6.0 0.00 0.00 0.00 83 1022.8
20260508004524 59 45 2.0 4.0 0.00 0.00 0.00 84 1022.8
20260508003033 59 328 1.0 2.0 0.00 0.00 0.00 83 1023.0
20260508001541 59 327 1.0 3.0 0.00 0.00 0.00 83 1023.1
20260508000053 58 48 1.0 3.0 0.00 0.00 0.00 85 1023.4
20260507234509 58 51 1.0 3.0 0.00 0.00 0.00 84 1023.5
20260507233013 58 343 1.0 2.0 0.00 0.00 0.00 84 1023.6
20260507231527 58 27 2.0 4.0 0.00 0.00 0.00 84 1023.7
20260507230038 58 64 3.0 7.0 0.00 0.00 0.00 85 1023.9
20260507224558 58 37 6.0 8.0 0.00 0.00 0.00 84 1023.9
20260507223051 58 56 4.0 6.0 0.00 0.00 0.00 82 1024.0
20260507221502 59 50 3.0 5.0 0.00 0.00 0.00 81 1024.0
20260507220008 60 37 3.0 6.0 0.00 0.00 0.00 81 1024.0
20260507214522 60 25 3.0 9.0 0.00 0.00 0.00 80 1024.1
20260507213034 61 38 3.0 6.0 0.00 0.00 0.00 77 1024.2
20260507211541 61 20 3.0 4.0 0.00 0.00 0.00 77 1024.2
20260507210112 61 9 2.0 6.0 0.00 0.00 0.00 77 1024.4
20260507204559 62 337 5.0 10.0 0.00 0.00 0.00 75 1024.2
20260507203010 62 342 7.0 11.0 0.00 0.00 0.00 77 1024.1
20260507201519 62 10 6.0 9.0 0.00 0.00 0.00 77 1024.3
20260507200034 62 347 5.0 8.0 0.00 0.00 0.00 77 1024.3
20260507194539 63 25 7.0 11.0 0.00 0.00 0.00 76 1024.3
20260507193059 63 39 9.0 14.0 0.00 0.00 0.00 77 1024.1
20260507191552 62 70 8.0 10.0 0.00 0.00 0.00 80 1024.2
20260507190049 62 37 5.0 10.0 0.00 0.00 0.00 80 1024.1
20260507184504 62 42 8.0 12.0 0.00 0.00 0.00 80 1023.9
20260507183013 62 32 7.0 13.0 0.00 0.00 0.00 81 1023.7
20260507181525 62 23 5.0 9.0 0.00 0.00 0.00 81 1023.7
20260507180033 63 37 2.0 5.0 0.00 0.00 0.00 78 1023.7
20260507174545 63 336 3.0 7.0 0.00 0.00 0.00 78 1023.6
20260507173128 64 338 2.0 4.0 0.00 0.00 0.00 77 1023.6
20260507171504 65 319 0.0 8.0 0.00 0.00 0.00 73 1023.8
20260507170013 66 23 1.0 6.0 0.00 0.00 0.00 70 1023.8
20260507164522 67 15 2.0 8.0 0.00 0.00 0.00 69 1023.8
20260507163032 68 29 4.0 8.0 0.00 0.00 0.00 70 1023.8
20260507161549 69 338 4.0 8.0 0.00 0.00 0.00 65 1023.7
20260507154558 72 25 4.0 10.0 0.00 0.00 0.00 60 1023.5
20260507153015 72 29 4.0 10.0 0.00 0.00 0.00 50 1023.7
20260507151520 74 250 0.0 2.0 0.00 0.00 0.00 52 1023.6
20260507150024 75 221 0.0 4.0 0.00 0.00 0.00 53 1023.6
20260507144545 75 214 1.0 4.0 0.00 0.00 0.00 52 1023.7
20260507143045 75 202 2.0 7.0 0.00 0.00 0.00 54 1023.6
20260507141610 76 180 3.0 7.0 0.00 0.00 0.00 52 1023.6
20260507140110 75 214 2.0 7.0 0.00 0.00 0.00 54 1023.6
20260507134515 76 190 0.0 4.0 0.00 0.00 0.00 52 1023.7
20260507133022 77 163 1.0 4.0 0.00 0.00 0.00 51 1023.6
20260507131534 75 248 0.0 5.0 0.00 0.00 0.00 54 1023.6
20260507130043 74 152 2.0 7.0 0.00 0.00 0.00 54 1023.9
20260507124555 73 218 3.0 7.0 0.00 0.00 0.00 56 1024.0
20260507123053 74 214 0.0 5.0 0.00 0.00 0.00 52 1024.1
20260507121554 73 241 1.0 4.0 0.00 0.00 0.00 54 1024.2
20260507120100 73 212 1.0 6.0 0.00 0.00 0.00 55 1024.2
20260507120011 73 241 1.0 6.0 0.00 0.00 0.00 56 1024.2
20260507114512 72 225 3.0 6.0 0.00 0.00 0.00 56 1024.5
20260507113028 72 224 3.0 8.0 0.00 0.00 0.00 56 1024.7
20260507111536 73 260 4.0 5.0 0.00 0.00 0.00 53 1024.9
20260507110043 72 160 1.0 5.0 0.00 0.00 0.00 55 1024.8
20260507104548 71 139 2.0 5.0 0.00 0.00 0.00 58 1024.7
20260507103100 71 161 1.0 5.0 0.00 0.00 0.00 61 1024.3
20260507101513 70 210 1.0 4.0 0.00 0.00 0.00 61 1024.2
20260507100022 70 176 2.0 4.0 0.00 0.00 0.00 59 1024.3
20260507094526 71 235 2.0 5.0 0.00 0.00 0.00 59 1024.4
20260507093044 72 183 0.0 4.0 0.00 0.00 0.00 57 1024.3
20260507091543 72 227 1.0 5.0 0.00 0.00 0.00 57 1024.2
20260507090110 71 212 1.0 5.0 0.00 0.00 0.00 60 1024.3
20260507084501 70 239 2.0 5.0 0.00 0.00 0.00 63 1024.1
20260507083014 69 202 1.0 6.0 0.00 0.00 0.00 65 1024.2
20260507081507 69 153 1.0 6.0 0.00 0.00 0.00 66 1024.0
20260507080022 71 154 1.0 3.0 0.00 0.00 0.00 63 1024.0
20260507074528 71 176 0.0 4.0 0.00 0.00 0.00 62 1023.8
20260507073040 69 154 0.0 4.0 0.00 0.00 0.00 67 1023.8
20260507071545 68 160 2.0 4.0 0.00 0.00 0.00 69 1023.8
20260507070130 67 219 1.0 6.0 0.00 0.00 0.00 69 1023.7